• In Hungary
  • List of Countries
  • For 7 days
  • Water Temperature
  • Satellite Maps
  • Weather Map
  • News
  • Weather Widgets
  • user-avatar
    Login

    Hourly Weather Ozod

    Today, 23 October, Tuesday

    Time Temperature Precipitation Wind Pressure Humidity
    00:00 +15°C° 0 mm 2 mps 725 mmHg 31%
    01:00 +14°C° 0 mm 2 mps 725 mmHg 31%
    02:00 +14°C° 0 mm 2 mps 725 mmHg 32%
    03:00 +14°C° 0 mm 2 mps 725 mmHg 32%
    04:00 +13°C° 0 mm 2 mps 726 mmHg 32%
    05:00 +13°C° 0 mm 2 mps 725 mmHg 31%
    06:00 +14°C° 0 mm 2 mps 725 mmHg 31%
    07:00 +15°C° 0 mm 2 mps 725 mmHg 31%
    08:00 +15°C° 0 mm 2 mps 725 mmHg 31%
    09:00 +17°C° 0 mm 2 mps 725 mmHg 28%
    10:00 +19°C° 0 mm 2 mps 725 mmHg 24%
    11:00 +22°C° 0 mm 1 mps 725 mmHg 21%
    12:00 +23°C° 0 mm 1 mps 725 mmHg 20%
    13:00 +23°C° 0 mm 1 mps 725 mmHg 19%
    14:00 +24°C° 0 mm 1 mps 725 mmHg 19%
    15:00 +23°C° 0 mm 1 mps 725 mmHg 21%
    16:00 +22°C° 0 mm 1 mps 725 mmHg 24%
    17:00 +21°C° 0 mm 1 mps 725 mmHg 26%
    18:00 +20°C° 0 mm 1 mps 725 mmHg 27%
    19:00 +18°C° 0 mm 2 mps 726 mmHg 28%
    20:00 +17°C° 0 mm 2 mps 726 mmHg 29%
    21:00 +17°C° 0 mm 2 mps 726 mmHg 30%
    22:00 +16°C° 0 mm 3 mps 726 mmHg 31%
    23:00 +16°C° 0 mm 3 mps 726 mmHg 31%

    Tomorrow, 24 October, Wednesday

    Time Temperature Precipitation Wind Pressure Humidity
    00:00 +14°C° 0 mm 3 mps 726 mmHg 32%
    01:00 +14°C° 0 mm 3 mps 725 mmHg 32%
    02:00 +14°C° 0 mm 3 mps 725 mmHg 32%
    03:00 +13°C° 0 mm 3 mps 725 mmHg 32%
    04:00 +13°C° 0 mm 3 mps 725 mmHg 32%
    05:00 +13°C° 0 mm 3 mps 725 mmHg 32%
    06:00 +13°C° 0 mm 3 mps 725 mmHg 31%
    07:00 +15°C° 0 mm 2 mps 725 mmHg 31%
    08:00 +15°C° 0 mm 2 mps 725 mmHg 30%
    09:00 +17°C° 0 mm 2 mps 725 mmHg 26%
    10:00 +19°C° 0 mm 2 mps 725 mmHg 23%
    11:00 +21°C° 0 mm 2 mps 725 mmHg 20%
    12:00 +23°C° 0 mm 2 mps 725 mmHg 19%
    13:00 +24°C° 0 mm 2 mps 724 mmHg 18%
    14:00 +25°C° 0 mm 2 mps 724 mmHg 17%
    15:00 +24°C° 0 mm 1 mps 724 mmHg 19%
    16:00 +23°C° 0 mm 1 mps 724 mmHg 21%
    17:00 +21°C° 0 mm 1 mps 724 mmHg 23%
    18:00 +20°C° 0 mm 1 mps 724 mmHg 24%
    19:00 +18°C° 0 mm 2 mps 725 mmHg 26%
    20:00 +17°C° 0 mm 2 mps 725 mmHg 27%
    21:00 +17°C° 0 mm 2 mps 725 mmHg 27%
    22:00 +16°C° 0 mm 3 mps 725 mmHg 27%
    23:00 +16°C° 0 mm 3 mps 725 mmHg 27%

    Day after tomorrow, 25 October, Thursday

    Time Temperature Precipitation Wind Pressure Humidity
    00:00 +14°C° 0 mm 3 mps 725 mmHg 27%
    01:00 +14°C° 0 mm 3 mps 725 mmHg 27%
    02:00 +14°C° 0 mm 3 mps 725 mmHg 26%
    03:00 +13°C° 0 mm 3 mps 725 mmHg 26%
    04:00 +13°C° 0 mm 3 mps 725 mmHg 26%
    05:00 +14°C° 0 mm 2 mps 725 mmHg 27%
    06:00 +14°C° 0 mm 2 mps 725 mmHg 26%
    07:00 +15°C° 0 mm 2 mps 725 mmHg 26%
    08:00 +16°C° 0 mm 2 mps 725 mmHg 26%
    09:00 +18°C° 0 mm 2 mps 725 mmHg 23%
    10:00 +20°C° 0 mm 2 mps 725 mmHg 20%
    11:00 +23°C° 0 mm 2 mps 725 mmHg 17%
    12:00 +23°C° 0 mm 2 mps 725 mmHg 16%
    13:00 +24°C° 0 mm 2 mps 724 mmHg 16%
    14:00 +25°C° 0 mm 2 mps 724 mmHg 15%
    15:00 +24°C° 0 mm 2 mps 724 mmHg 17%
    16:00 +23°C° 0 mm 1 mps 725 mmHg 19%
    17:00 +22°C° 0 mm 1 mps 725 mmHg 21%
    18:00 +20°C° 0 mm 2 mps 725 mmHg 22%
    19:00 +19°C° 0 mm 2 mps 725 mmHg 23%
    20:00 +18°C° 0 mm 2 mps 726 mmHg 24%
    21:00 +17°C° 0 mm 2 mps 726 mmHg 25%
    22:00 +17°C° 0 mm 3 mps 726 mmHg 26%
    23:00 +17°C° 0 mm 3 mps 726 mmHg 27%

    26 October, Friday

    Time Temperature Precipitation Wind Pressure Humidity
    00:00 +16°C° 0 mm 3 mps 726 mmHg 27%
    01:00 +16°C° 0 mm 3 mps 726 mmHg 27%
    02:00 +16°C° 0 mm 3 mps 726 mmHg 27%
    03:00 +14°C° 0 mm 3 mps 726 mmHg 27%
    04:00 +14°C° 0 mm 3 mps 726 mmHg 27%
    05:00 +14°C° 0 mm 3 mps 726 mmHg 28%
    06:00 +16°C° 0 mm 3 mps 726 mmHg 28%
    07:00 +16°C° 0 mm 3 mps 726 mmHg 28%
    08:00 +17°C° 0 mm 2 mps 726 mmHg 28%
    09:00 +19°C° 0 mm 2 mps 726 mmHg 24%
    10:00 +21°C° 0 mm 2 mps 726 mmHg 21%
    11:00 +24°C° 0 mm 2 mps 726 mmHg 17%
    12:00 +25°C° 0 mm 2 mps 726 mmHg 16%
    13:00 +26°C° 0 mm 2 mps 726 mmHg 16%
    14:00 +27°C° 0 mm 2 mps 725 mmHg 15%
    15:00 +26°C° 0 mm 1 mps 725 mmHg 17%
    16:00 +24°C° 0 mm 1 mps 725 mmHg 19%
    17:00 +23°C° 0 mm 1 mps 725 mmHg 22%
    18:00 +21°C° 0 mm 2 mps 726 mmHg 23%
    19:00 +20°C° 0 mm 2 mps 726 mmHg 24%
    20:00 +19°C° 0 mm 3 mps 727 mmHg 25%
    21:00 +19°C° 0 mm 3 mps 727 mmHg 25%
    22:00 +18°C° 0 mm 3 mps 727 mmHg 26%
    23:00 +18°C° 0 mm 3 mps 726 mmHg 26%

    27 October, Saturday

    Time Temperature Precipitation Wind Pressure Humidity
    00:00 +18°C° 0 mm 3 mps 726 mmHg 26%
    01:00 +17°C° 0 mm 3 mps 726 mmHg 27%
    02:00 +17°C° 0 mm 3 mps 726 mmHg 27%
    03:00 +17°C° 0 mm 3 mps 726 mmHg 27%
    04:00 +17°C° 0 mm 3 mps 726 mmHg 27%
    05:00 +17°C° 0 mm 3 mps 726 mmHg 27%
    06:00 +17°C° 0 mm 3 mps 726 mmHg 27%
    07:00 +18°C° 0 mm 3 mps 726 mmHg 27%
    08:00 +18°C° 0 mm 3 mps 726 mmHg 27%
    09:00 +21°C° 0 mm 3 mps 726 mmHg 23%
    10:00 +24°C° 0 mm 3 mps 726 mmHg 20%
    11:00 +27°C° 0 mm 2 mps 725 mmHg 16%
    12:00 +27°C° 0 mm 2 mps 725 mmHg 15%
    13:00 +28°C° 0 mm 2 mps 725 mmHg 15%
    14:00 +29°C° 0 mm 1 mps 725 mmHg 14%
    15:00 +28°C° 0 mm 1 mps 725 mmHg 16%
    16:00 +27°C° 0 mm 1 mps 725 mmHg 18%
    17:00 +25°C° 0 mm 1 mps 725 mmHg 20%
    18:00 +24°C° 0 mm 2 mps 725 mmHg 21%
    19:00 +24°C° 0 mm 2 mps 726 mmHg 22%
    20:00 +22°C° 0 mm 3 mps 726 mmHg 23%
    21:00 +22°C° 0 mm 3 mps 726 mmHg 23%
    22:00 +23°C° 0 mm 2 mps 726 mmHg 24%
    23:00 +23°C° 0 mm 2 mps 727 mmHg 24%

    28 October, Sunday

    Time Temperature Precipitation Wind Pressure Humidity
    00:00 +21°C° 0 mm 2 mps 727 mmHg 25%
    01:00 +21°C° 0 mm 2 mps 727 mmHg 26%
    02:00 +20°C° 0 mm 2 mps 727 mmHg 27%
    03:00 +20°C° 0 mm 2 mps 727 mmHg 28%
    04:00 +19°C° 0 mm 2 mps 728 mmHg 30%
    05:00 +19°C° 0 mm 2 mps 728 mmHg 31%
    06:00 +19°C° 0 mm 2 mps 728 mmHg 34%
    07:00 +19°C° 0 mm 2 mps 729 mmHg 37%
    08:00 +19°C° 0 mm 2 mps 729 mmHg 39%
    09:00 +20°C° 0 mm 2 mps 730 mmHg 41%
    10:00 +21°C° 0 mm 2 mps 730 mmHg 43%
    11:00 +21°C° 0 mm 2 mps 730 mmHg 45%
    12:00 +21°C° 0.4 mm 3 mps 730 mmHg 48%
    13:00 +20°C° 0.4 mm 3 mps 730 mmHg 51%
    14:00 +20°C° 0.4 mm 3 mps 730 mmHg 55%
    15:00 +19°C° 0.2 mm 3 mps 730 mmHg 57%
    16:00 +19°C° 0.2 mm 2 mps 730 mmHg 59%
    17:00 +18°C° 0.2 mm 2 mps 731 mmHg 61%
    18:00 +18°C° 0.1 mm 2 mps 731 mmHg 63%
    19:00 +18°C° 0.1 mm 1 mps 731 mmHg 65%
    20:00 +18°C° 0.1 mm 1 mps 731 mmHg 66%
    21:00 +18°C° 0 mm 1 mps 731 mmHg 67%
    22:00 +16°C° 0 mm 1 mps 731 mmHg 68%
    23:00 +16°C° 0 mm 1 mps 731 mmHg 69%

    29 October, Monday

    Time Temperature Precipitation Wind Pressure Humidity
    00:00 +16°C° 0 mm 1 mps 731 mmHg 70%
    01:00 +15°C° 0 mm 0 mps 731 mmHg 71%
    02:00 +15°C° 0 mm 0 mps 731 mmHg 71%
    03:00 +15°C° 0 mm 1 mps 731 mmHg 71%
    04:00 +15°C° 0 mm 1 mps 731 mmHg 72%
    05:00 +15°C° 0 mm 1 mps 731 mmHg 72%
    06:00 +15°C° 0 mm 1 mps 730 mmHg 69%
    07:00 +15°C° 0 mm 1 mps 730 mmHg 67%
    08:00 +16°C° 0 mm 1 mps 730 mmHg 65%
    09:00 +18°C° 0 mm 1 mps 730 mmHg 59%
    10:00 +19°C° 0 mm 1 mps 729 mmHg 54%
    11:00 +20°C° 0 mm 1 mps 729 mmHg 48%
    12:00 +19°C° 0 mm 2 mps 729 mmHg 45%
    13:00 +20°C° 0 mm 2 mps 728 mmHg 42%
    14:00 +21°C° 0 mm 2 mps 728 mmHg 38%
    15:00 +20°C° 0 mm 2 mps 728 mmHg 42%
    16:00 +19°C° 0 mm 2 mps 728 mmHg 46%
    17:00 +18°C° 0 mm 2 mps 729 mmHg 50%
    18:00 +18°C° 0 mm 2 mps 729 mmHg 52%
    19:00 +18°C° 0 mm 1 mps 729 mmHg 55%
    20:00 +18°C° 0 mm 1 mps 729 mmHg 57%
    21:00 +16°C° 0 mm 1 mps 729 mmHg 58%
    22:00 +16°C° 0 mm 1 mps 729 mmHg 58%
    23:00 +15°C° 0 mm 1 mps 729 mmHg 59%
    Show more